31-07-2022, 00:00:05,    227,    1.0,   16.4,   0.00,   0.00, 1014.5,   85.6, -999.0
31-07-2022, 00:00:15,    226,    0.1,   16.4,   0.00,   0.00, 1014.4,   85.2, -999.0
31-07-2022, 00:00:25,    224,    0.3,   16.3,   0.00,   0.00, 1014.4,   85.4, -999.0
31-07-2022, 00:00:35,    242,    1.0,   16.5,   0.00,   0.00, 1014.5,   85.5, -999.0
31-07-2022, 00:00:45,    247,    0.7,   16.4,   0.00,   0.00, 1014.4,   85.3, -999.0
31-07-2022, 00:00:55,    246,    0.0,   16.4,   0.00,   0.00, 1014.3,   85.2, -999.0
31-07-2022, 00:01:05,    215,    0.0,   16.3,   0.00,   0.00, 1014.3,   85.0, -999.0
31-07-2022, 00:01:14,    215,    0.0,   16.3,   0.00,   0.00, 1014.3,   85.1, -999.0
31-07-2022, 00:01:25,    215,    0.0,   16.3,   0.00,   0.00, 1014.3,   85.1, -999.0
31-07-2022, 00:01:35,    215,    0.0,   16.4,   0.00,   0.00, 1014.3,   85.0, -999.0
31-07-2022, 00:01:44,    217,    0.0,   16.3,   0.00,   0.00, 1014.3,   85.1, -999.0
31-07-2022, 00:01:54,    217,    0.0,   16.4,   0.00,   0.00, 1014.3,   85.0, -999.0
31-07-2022, 00:02:05,    217,    0.0,   16.4,   0.00,   0.00, 1014.3,   85.0, -999.0
31-07-2022, 00:02:14,    217,    0.0,   16.4,   0.00,   0.00, 1014.3,   85.0, -999.0
31-07-2022, 00:02:24,    217,    0.0,   16.3,   0.00,   0.00, 1014.3,   84.9, -999.0
31-07-2022, 00:02:34,    217,    0.0,   16.3,   0.00,   0.00, 1014.3,   85.0, -999.0
31-07-2022, 00:02:44,    221,    0.0,   16.3,   0.00,   0.00, 1014.3,   85.1, -999.0
31-07-2022, 00:02:54,    221,    0.0,   16.3,   0.00,   0.00, 1014.3,   84.9, -999.0
31-07-2022, 00:03:04,    221,    0.0,   16.3,   0.00,   0.00, 1014.3,   85.0, -999.0
31-07-2022, 00:03:14,    220,    0.0,   16.3,   0.00,   0.00, 1014.3,   85.0, -999.0
31-07-2022, 00:03:24,    219,    0.0,   16.4,   0.00,   0.00, 1014.3,   85.0, -999.0
31-07-2022, 00:03:34,    219,    0.6,   16.5,   0.00,   0.00, 1014.4,   85.2, -999.0
31-07-2022, 00:03:44,    223,    1.1,   16.5,   0.00,   0.00, 1014.4,   85.3, -999.0
31-07-2022, 00:03:54,    224,    0.2,   16.5,   0.00,   0.00, 1014.4,   85.1, -999.0
31-07-2022, 00:04:04,    215,    0.2,   16.5,   0.00,   0.00, 1014.4,   85.1, -999.0
31-07-2022, 00:04:14,    215,    0.0,   16.3,   0.00,   0.00, 1014.3,   84.9, -999.0
31-07-2022, 00:04:23,    215,    0.0,   16.4,   0.00,   0.00, 1014.3,   84.9, -999.0
31-07-2022, 00:04:34,    215,    0.0,   16.3,   0.00,   0.00, 1014.3,   84.9, -999.0
31-07-2022, 00:04:43,    220,    0.0,   16.4,   0.00,   0.00, 1014.4,   85.0, -999.0
31-07-2022, 00:04:53,    212,    0.5,   16.5,   0.00,   0.00, 1014.4,   85.3, -999.0
31-07-2022, 00:05:04,    211,    0.2,   16.4,   0.00,   0.00, 1014.4,   85.1, -999.0
31-07-2022, 00:05:13,    211,    0.0,   16.3,   0.00,   0.00, 1014.3,   85.0, -999.0
31-07-2022, 00:05:23,    213,    0.1,   16.4,   0.00,   0.00, 1014.3,   85.0, -999.0
31-07-2022, 00:05:33,    223,    0.3,   16.5,   0.00,   0.00, 1014.3,   85.2, -999.0
31-07-2022, 00:05:43,    233,    1.0,   16.5,   0.00,   0.00, 1014.4,   85.2, -999.0
31-07-2022, 00:05:53,    231,    0.1,   16.5,   0.00,   0.00, 1014.4,   85.0, -999.0
31-07-2022, 00:06:03,    219,    1.4,   16.5,   0.00,   0.00, 1014.4,   85.2, -999.0
31-07-2022, 00:06:13,    226,    1.0,   16.5,   0.00,   0.00, 1014.4,   85.2, -999.0
31-07-2022, 00:06:23,    242,    1.2,   16.4,   0.00,   0.00, 1014.4,   85.2, -999.0
31-07-2022, 00:06:33,    220,    1.8,   16.4,   0.00,   0.00, 1014.4,   85.1, -999.0
31-07-2022, 00:06:43,    199,    2.0,   16.5,   0.00,   0.00, 1014.4,   85.3, -999.0
31-07-2022, 00:06:52,    208,    1.7,   16.5,   0.00,   0.00, 1014.4,   85.2, -999.0
31-07-2022, 00:07:03,    213,    1.2,   16.5,   0.00,   0.00, 1014.4,   85.1, -999.0
31-07-2022, 00:07:13,    198,    0.9,   16.5,   0.00,   0.00, 1014.4,   85.0, -999.0
31-07-2022, 00:07:22,    199,    0.2,   16.4,   0.00,   0.00, 1014.3,   84.9, -999.0
31-07-2022, 00:07:33,    199,    0.0,   16.4,   0.00,   0.00, 1014.2,   84.7, -999.0
31-07-2022, 00:07:43,    199,    0.0,   16.5,   0.00,   0.00, 1014.3,   84.6, -999.0
31-07-2022, 00:07:52,    201,    0.0,   16.4,   0.00,   0.00, 1014.2,   84.7, -999.0
31-07-2022, 00:08:02,    200,    0.0,   16.3,   0.00,   0.00, 1014.2,   84.7, -999.0
31-07-2022, 00:08:12,    201,    0.0,   16.4,   0.00,   0.00, 1014.3,   84.8, -999.0
31-07-2022, 00:08:22,    201,    0.0,   16.5,   0.00,   0.00, 1014.3,   84.8, -999.0
31-07-2022, 00:08:32,    201,    0.0,   16.5,   0.00,   0.00, 1014.3,   84.9, -999.0
31-07-2022, 00:08:42,    200,    0.0,   16.5,   0.00,   0.00, 1014.3,   84.8, -999.0
31-07-2022, 00:08:52,    200,    0.0,   16.4,   0.00,   0.00, 1014.3,   84.9, -999.0
31-07-2022, 00:09:02,    200,    0.0,   16.5,   0.00,   0.00, 1014.3,   84.8, -999.0
31-07-2022, 00:09:12,    202,    0.0,   16.4,   0.00,   0.00, 1014.3,   84.9, -999.0
31-07-2022, 00:09:22,    203,    0.0,   16.4,   0.00,   0.00, 1014.3,   84.8, -999.0
31-07-2022, 00:09:32,    203,    0.0,   16.5,   0.00,   0.00, 1014.3,   84.7, -999.0
31-07-2022, 00:09:42,    203,    0.0,   16.5,   0.00,   0.00, 1014.3,   84.6, -999.0
31-07-2022, 00:09:52,    203,    0.0,   16.4,   0.00,   0.00, 1014.3,   84.7, -999.0
31-07-2022, 00:10:02,    206,    0.0,   16.5,   0.00,   0.00, 1014.3,   84.7, -999.0
31-07-2022, 00:10:12,    207,    0.0,   16.5,   0.00,   0.00, 1014.3,   84.7, -999.0
31-07-2022, 00:10:21,    207,    0.0,   16.5,   0.00,   0.00, 1014.3,   84.7, -999.0
31-07-2022, 00:10:31,    199,    0.0,   16.5,   0.00,   0.00, 1014.3,   84.6, -999.0
31-07-2022, 00:10:42,    199,    0.0,   16.5,   0.00,   0.00, 1014.3,   84.6, -999.0
31-07-2022, 00:10:51,    199,    0.0,   16.5,   0.00,   0.00, 1014.3,   84.6, -999.0
31-07-2022, 00:11:01,    201,    0.0,   16.5,   0.00,   0.00, 1014.2,   84.5, -999.0
31-07-2022, 00:11:12,    201,    0.0,   16.5,   0.00,   0.00, 1014.2,   84.7, -999.0
31-07-2022, 00:11:21,    201,    0.0,   16.4,   0.00,   0.00, 1014.3,   84.6, -999.0
31-07-2022, 00:11:31,    202,    0.0,   16.4,   0.00,   0.00, 1014.3,   84.5, -999.0
31-07-2022, 00:11:41,    202,    0.0,   16.4,   0.00,   0.00, 1014.3,   84.5, -999.0
31-07-2022, 00:11:51,    202,    0.0,   16.4,   0.00,   0.00, 1014.2,   84.6, -999.0
31-07-2022, 00:12:01,    203,    0.0,   16.4,   0.00,   0.00, 1014.2,   84.5, -999.0
31-07-2022, 00:12:11,    204,    0.0,   16.5,   0.00,   0.00, 1014.2,   84.6, -999.0
31-07-2022, 00:12:21,    204,    0.0,   16.5,   0.00,   0.00, 1014.3,   84.5, -999.0
31-07-2022, 00:12:31,    204,    0.0,   16.5,   0.00,   0.00, 1014.2,   84.5, -999.0
31-07-2022, 00:12:41,    203,    0.0,   16.5,   0.00,   0.00, 1014.2,   84.5, -999.0
31-07-2022, 00:12:51,    204,    0.0,   16.4,   0.00,   0.00, 1014.3,   84.5, -999.0
31-07-2022, 00:13:00,    204,    0.0,   16.5,   0.00,   0.00, 1014.2,   84.5, -999.0
31-07-2022, 00:13:11,    205,    0.0,   16.4,   0.00,   0.00, 1014.2,   84.5, -999.0
31-07-2022, 00:13:21,    205,    0.0,   16.5,   0.00,   0.00, 1014.2,   84.5, -999.0
31-07-2022, 00:13:30,    205,    0.0,   16.5,   0.00,   0.00, 1014.2,   84.4, -999.0
31-07-2022, 00:13:41,    205,    0.0,   16.4,   0.00,   0.00, 1014.2,   84.5, -999.0
31-07-2022, 00:13:50,    220,    0.5,   16.4,   0.00,   0.00, 1014.3,   84.6, -999.0
31-07-2022, 00:14:00,    166,    0.7,   16.5,   0.00,   0.00, 1014.4,   84.8, -999.0
31-07-2022, 00:14:10,    201,    0.9,   16.6,   0.00,   0.00, 1014.3,   84.7, -999.0
31-07-2022, 00:14:20,    214,    1.6,   16.5,   0.00,   0.00, 1014.3,   84.7, -999.0
31-07-2022, 00:14:30,    214,    0.1,   16.5,   0.00,   0.00, 1014.3,   84.4, -999.0
31-07-2022, 00:14:40,    214,    0.0,   16.5,   0.00,   0.00, 1014.2,   84.3, -999.0
31-07-2022, 00:14:50,    214,    0.4,   16.6,   0.00,   0.00, 1014.3,   84.6, -999.0
31-07-2022, 00:15:00,    221,    0.2,   16.4,   0.00,   0.00, 1014.3,   84.4, -999.0
31-07-2022, 00:15:10,    225,    0.3,   16.6,   0.00,   0.00, 1014.3,   84.6, -999.0
31-07-2022, 00:15:20,    229,    0.4,   16.5,   0.00,   0.00, 1014.3,   84.6, -999.0
31-07-2022, 00:15:30,    230,    0.0,   16.5,   0.00,   0.00, 1014.2,   84.4, -999.0
31-07-2022, 00:15:40,    230,    0.5,   16.5,   0.00,   0.00, 1014.3,   84.6, -999.0
31-07-2022, 00:15:50,    229,    0.4,   16.5,   0.00,   0.00, 1014.2,   84.6, -999.0
31-07-2022, 00:15:59,    228,    0.0,   16.4,   0.00,   0.00, 1014.2,   84.4, -999.0
31-07-2022, 00:16:10,    228,    0.0,   16.4,   0.00,   0.00, 1014.2,   84.4, -999.0
31-07-2022, 00:16:20,    228,    0.0,   16.4,   0.00,   0.00, 1014.2,   84.5, -999.0
31-07-2022, 00:16:29,    227,    0.1,   16.5,   0.00,   0.00, 1014.2,   84.6, -999.0
31-07-2022, 00:16:39,    228,    0.0,   16.5,   0.00,   0.00, 1014.1,   84.5, -999.0
31-07-2022, 00:16:50,    227,    0.0,   16.5,   0.00,   0.00, 1014.1,   84.4, -999.0
31-07-2022, 00:16:59,    170,    0.0,   16.5,   0.00,   0.00, 1014.1,   84.6, -999.0
31-07-2022, 00:17:09,    171,    0.0,   16.5,   0.00,   0.00, 1014.1,   84.4, -999.0
31-07-2022, 00:17:19,    179,    0.0,   16.4,   0.00,   0.00, 1014.1,   84.4, -999.0
31-07-2022, 00:17:29,    181,    0.0,   16.4,   0.00,   0.00, 1014.1,   84.4, -999.0
31-07-2022, 00:17:39,    181,    0.0,   16.4,   0.00,   0.00, 1014.1,   84.2, -999.0
31-07-2022, 00:17:49,    185,    0.0,   16.5,   0.00,   0.00, 1014.1,   84.4, -999.0
31-07-2022, 00:17:59,    186,    0.0,   16.5,   0.00,   0.00, 1014.1,   84.3, -999.0
31-07-2022, 00:18:09,    187,    0.0,   16.5,   0.00,   0.00, 1014.1,   84.4, -999.0
31-07-2022, 00:18:19,    188,    0.0,   16.5,   0.00,   0.00, 1014.1,   84.4, -999.0
31-07-2022, 00:18:29,    188,    0.0,   16.5,   0.00,   0.00, 1014.1,   84.4, -999.0
31-07-2022, 00:18:39,    188,    0.0,   16.4,   0.00,   0.00, 1014.1,   84.4, -999.0
31-07-2022, 00:18:49,    188,    0.0,   16.5,   0.00,   0.00, 1014.1,   84.4, -999.0
31-07-2022, 00:18:59,    188,    0.0,   16.5,   0.00,   0.00, 1014.1,   84.5, -999.0
31-07-2022, 00:19:08,    189,    0.0,   16.5,   0.00,   0.00, 1014.1,   84.3, -999.0
31-07-2022, 00:19:19,    188,    0.0,   16.5,   0.00,   0.00, 1014.1,   84.4, -999.0
31-07-2022, 00:19:29,    188,    0.0,   16.5,   0.00,   0.00, 1014.1,   84.3, -999.0
31-07-2022, 00:19:38,    192,    0.0,   16.5,   0.00,   0.00, 1014.1,   84.4, -999.0
31-07-2022, 00:19:48,    212,    1.2,   16.5,   0.00,   0.00, 1014.2,   84.8, -999.0
31-07-2022, 00:19:58,    214,    0.6,   16.6,   0.00,   0.00, 1014.3,   84.7, -999.0
31-07-2022, 00:20:08,    217,    0.4,   16.5,   0.00,   0.00, 1014.2,   84.7, -999.0
31-07-2022, 00:20:18,    215,    0.3,   16.5,   0.00,   0.00, 1014.2,   84.6, -999.0
31-07-2022, 00:20:28,    215,    0.1,   16.4,   0.00,   0.00, 1014.2,   84.6, -999.0
31-07-2022, 00:20:38,    215,    0.0,   16.5,   0.00,   0.00, 1014.1,   84.4, -999.0
31-07-2022, 00:20:48,    220,    1.2,   16.6,   0.00,   0.00, 1014.2,   84.7, -999.0
31-07-2022, 00:20:58,    220,    0.2,   16.5,   0.00,   0.00, 1014.2,   84.5, -999.0
31-07-2022, 00:21:08,    220,    0.0,   16.4,   0.00,   0.00, 1014.1,   84.3, -999.0
31-07-2022, 00:21:18,    220,    0.0,   16.4,   0.00,   0.00, 1014.1,   84.4, -999.0
31-07-2022, 00:21:28,    220,    0.0,   16.5,   0.00,   0.00, 1014.1,   84.4, -999.0
31-07-2022, 00:21:38,    220,    0.0,   16.5,   0.00,   0.00, 1014.1,   84.4, -999.0
31-07-2022, 00:21:48,    220,    0.0,   16.4,   0.00,   0.00, 1014.1,   84.5, -999.0
31-07-2022, 00:21:58,    220,    0.0,   16.4,   0.00,   0.00, 1014.1,   84.4, -999.0
31-07-2022, 00:22:07,    220,    0.0,   16.4,   0.00,   0.00, 1014.1,   84.3, -999.0
31-07-2022, 00:22:17,    220,    0.0,   16.5,   0.00,   0.00, 1014.1,   84.4, -999.0
31-07-2022, 00:22:28,    220,    0.0,   16.5,   0.00,   0.00, 1014.1,   84.3, -999.0
31-07-2022, 00:22:37,    220,    0.0,   16.5,   0.00,   0.00, 1014.1,   84.3, -999.0
31-07-2022, 00:22:47,    220,    0.0,   16.5,   0.00,   0.00, 1014.1,   84.4, -999.0
31-07-2022, 00:22:57,    220,    0.0,   16.5,   0.00,   0.00, 1014.1,   84.4, -999.0
31-07-2022, 00:23:07,    220,    0.0,   16.5,   0.00,   0.00, 1014.1,   84.4, -999.0
31-07-2022, 00:23:17,    220,    0.0,   16.6,   0.00,   0.00, 1014.1,   84.4, -999.0
31-07-2022, 00:23:27,    220,    0.0,   16.6,   0.00,   0.00, 1014.1,   84.5, -999.0
31-07-2022, 00:23:37,    220,    0.0,   16.5,   0.00,   0.00, 1014.1,   84.5, -999.0
31-07-2022, 00:23:47,    220,    0.0,   16.4,   0.00,   0.00, 1014.0,   84.4, -999.0
31-07-2022, 00:23:57,    220,    0.0,   16.6,   0.00,   0.00, 1014.1,   84.4, -999.0
31-07-2022, 00:24:07,    220,    0.0,   16.5,   0.00,   0.00, 1014.1,   84.4, -999.0
31-07-2022, 00:24:17,    220,    0.0,   16.5,   0.00,   0.00, 1014.1,   84.4, -999.0
31-07-2022, 00:24:27,    220,    0.0,   16.5,   0.00,   0.00, 1014.1,   84.2, -999.0
31-07-2022, 00:24:37,    220,    0.0,   16.5,   0.00,   0.00, 1014.1,   84.3, -999.0
31-07-2022, 00:24:46,    220,    0.0,   16.6,   0.00,   0.00, 1014.1,   84.3, -999.0
31-07-2022, 00:24:57,    221,    0.0,   16.5,   0.00,   0.00, 1014.1,   84.4, -999.0
31-07-2022, 00:25:07,    206,    0.9,   16.5,   0.00,   0.00, 1014.1,   84.4, -999.0
31-07-2022, 00:25:16,    204,    1.0,   16.6,   0.00,   0.00, 1014.1,   84.6, -999.0
31-07-2022, 00:25:27,    204,    0.2,   16.6,   0.00,   0.00, 1014.1,   84.6, -999.0
31-07-2022, 00:25:36,    205,    0.1,   16.6,   0.00,   0.00, 1014.1,   84.5, -999.0
31-07-2022, 00:25:46,    218,    0.0,   16.5,   0.00,   0.00, 1014.1,   84.3, -999.0
31-07-2022, 00:25:56,    263,    1.1,   16.6,   0.00,   0.00, 1014.1,   84.7, -999.0
31-07-2022, 00:26:06,    263,    0.2,   16.6,   0.00,   0.00, 1014.1,   84.4, -999.0
31-07-2022, 00:26:16,    182,    0.0,   16.6,   0.00,   0.00, 1014.0,   84.3, -999.0
31-07-2022, 00:26:26,    182,    0.0,   16.6,   0.00,   0.00, 1014.0,   84.3, -999.0
31-07-2022, 00:26:36,    182,    0.0,   16.5,   0.00,   0.00, 1014.1,   84.3, -999.0
31-07-2022, 00:26:46,    182,    0.0,   16.3,   0.00,   0.00, 1014.0,   84.3, -999.0
31-07-2022, 00:26:56,    203,    2.2,   16.6,   0.00,   0.00, 1014.1,   84.7, -999.0
31-07-2022, 00:27:06,    216,    1.6,   16.6,   0.00,   0.00, 1014.1,   84.6, -999.0
31-07-2022, 00:27:16,    222,    1.7,   16.6,   0.00,   0.00, 1014.1,   84.4, -999.0
31-07-2022, 00:27:26,    222,    1.1,   16.6,   0.00,   0.00, 1014.1,   84.5, -999.0
31-07-2022, 00:27:36,    221,    0.8,   16.6,   0.00,   0.00, 1014.1,   84.6, -999.0
31-07-2022, 00:27:45,    221,    0.0,   16.5,   0.00,   0.00, 1014.0,   84.1, -999.0
31-07-2022, 00:27:56,    221,    0.0,   16.5,   0.00,   0.00, 1014.0,   84.1, -999.0
31-07-2022, 00:28:06,    221,    0.0,   16.5,   0.00,   0.00, 1014.0,   84.2, -999.0
31-07-2022, 00:28:15,    221,    0.0,   16.5,   0.00,   0.00, 1014.0,   84.1, -999.0
31-07-2022, 00:28:25,    228,    0.0,   16.5,   0.00,   0.00, 1014.1,   84.2, -999.0
31-07-2022, 00:28:36,    195,    0.0,   16.5,   0.00,   0.00, 1014.0,   84.2, -999.0
31-07-2022, 00:28:45,    196,    0.0,   16.6,   0.00,   0.00, 1014.0,   84.4, -999.0
31-07-2022, 00:28:55,    199,    0.4,   16.6,   0.00,   0.00, 1014.1,   84.5, -999.0
31-07-2022, 00:29:05,    201,    0.5,   16.6,   0.00,   0.00, 1014.1,   84.6, -999.0
31-07-2022, 00:29:15,    211,    0.6,   16.5,   0.00,   0.00, 1014.1,   84.5, -999.0
31-07-2022, 00:29:25,    211,    0.3,   16.6,   0.00,   0.00, 1014.1,   84.4, -999.0
31-07-2022, 00:29:35,    217,    0.7,   16.6,   0.00,   0.00, 1014.1,   84.6, -999.0
31-07-2022, 00:29:45,    217,    0.3,   16.7,   0.00,   0.00, 1014.0,   84.4, -999.0
31-07-2022, 00:29:55,    218,    0.0,   16.6,   0.00,   0.00, 1014.0,   84.3, -999.0
31-07-2022, 00:30:05,    218,    0.2,   16.6,   0.00,   0.00, 1014.0,   84.4, -999.0
31-07-2022, 00:30:15,    218,    0.9,   16.6,   0.00,   0.00, 1014.1,   84.5, -999.0
31-07-2022, 00:30:25,    219,    0.0,   16.5,   0.00,   0.00, 1014.0,   84.2, -999.0
31-07-2022, 00:30:35,    218,    0.0,   16.5,   0.00,   0.00, 1014.0,   84.2, -999.0
31-07-2022, 00:30:45,    218,    0.4,   16.5,   0.00,   0.00, 1014.0,   84.4, -999.0
31-07-2022, 00:30:54,    218,    0.9,   16.7,   0.00,   0.00, 1014.1,   84.6, -999.0
31-07-2022, 00:31:05,    214,    0.5,   16.6,   0.00,   0.00, 1014.1,   84.4, -999.0
31-07-2022, 00:31:14,    214,    1.1,   16.7,   0.00,   0.00, 1014.1,   84.5, -999.0
31-07-2022, 00:31:24,    213,    0.1,   16.5,   0.00,   0.00, 1014.0,   84.3, -999.0
31-07-2022, 00:31:35,    213,    0.0,   16.5,   0.00,   0.00, 1014.0,   84.2, -999.0
31-07-2022, 00:31:44,    213,    0.0,   16.5,   0.00,   0.00, 1013.9,   84.3, -999.0
31-07-2022, 00:31:54,    213,    0.0,   16.5,   0.00,   0.00, 1014.0,   84.3, -999.0
31-07-2022, 00:32:04,    213,    0.0,   16.5,   0.00,   0.00, 1014.0,   84.2, -999.0
31-07-2022, 00:32:14,    213,    0.2,   16.5,   0.00,   0.00, 1014.0,   84.5, -999.0
31-07-2022, 00:32:24,    213,    1.0,   16.6,   0.00,   0.00, 1014.0,   84.6, -999.0
31-07-2022, 00:32:34,    213,    0.8,   16.6,   0.00,   0.00, 1014.1,   84.6, -999.0
31-07-2022, 00:32:44,    212,    0.3,   16.6,   0.00,   0.00, 1014.0,   84.5, -999.0
31-07-2022, 00:32:54,    190,    0.8,   16.7,   0.00,   0.00, 1014.1,   84.6, -999.0
31-07-2022, 00:33:04,    171,    1.1,   16.6,   0.00,   0.00, 1014.1,   84.6, -999.0
31-07-2022, 00:33:14,    182,    0.4,   16.6,   0.00,   0.00, 1014.1,   84.6, -999.0
31-07-2022, 00:33:24,    226,    0.7,   16.6,   0.00,   0.00, 1014.1,   84.6, -999.0
31-07-2022, 00:33:34,    177,    0.3,   16.5,   0.00,   0.00, 1014.0,   84.6, -999.0
31-07-2022, 00:33:44,    177,    0.0,   16.5,   0.00,   0.00, 1013.9,   84.3, -999.0
31-07-2022, 00:33:53,    194,    0.0,   16.5,   0.00,   0.00, 1014.0,   84.3, -999.0
31-07-2022, 00:34:04,    198,    0.6,   16.6,   0.00,   0.00, 1014.1,   84.6, -999.0
31-07-2022, 00:34:14,    201,    0.1,   16.5,   0.00,   0.00, 1014.0,   84.4, -999.0
31-07-2022, 00:34:23,    207,    0.4,   16.5,   0.00,   0.00, 1014.0,   84.6, -999.0
31-07-2022, 00:34:33,    214,    0.1,   16.5,   0.00,   0.00, 1014.0,   84.4, -999.0
31-07-2022, 00:34:43,    216,    0.5,   16.6,   0.00,   0.00, 1014.1,   84.6, -999.0
31-07-2022, 00:34:53,    217,    0.0,   16.5,   0.00,   0.00, 1014.0,   84.3, -999.0
31-07-2022, 00:35:03,    223,    0.4,   16.5,   0.00,   0.00, 1014.0,   84.6, -999.0
31-07-2022, 00:35:13,    218,    2.0,   16.5,   0.00,   0.00, 1014.0,   84.7, -999.0
31-07-2022, 00:35:23,    230,    1.9,   16.5,   0.00,   0.00, 1014.1,   84.8, -999.0
31-07-2022, 00:35:33,    234,    1.8,   16.5,   0.00,   0.00, 1014.1,   84.7, -999.0
31-07-2022, 00:35:43,    232,    0.5,   16.5,   0.00,   0.00, 1014.1,   84.6, -999.0
31-07-2022, 00:35:53,    212,    0.9,   16.6,   0.00,   0.00, 1014.1,   84.7, -999.0
31-07-2022, 00:36:03,    206,    2.2,   16.6,   0.00,   0.00, 1014.1,   84.7, -999.0
31-07-2022, 00:36:13,    200,    1.3,   16.5,   0.00,   0.00, 1014.1,   84.7, -999.0
31-07-2022, 00:36:23,    200,    0.1,   16.5,   0.00,   0.00, 1014.0,   84.5, -999.0
31-07-2022, 00:36:33,    200,    0.1,   16.5,   0.00,   0.00, 1014.1,   84.6, -999.0
31-07-2022, 00:36:43,    200,    0.0,   16.5,   0.00,   0.00, 1014.0,   84.3, -999.0
31-07-2022, 00:36:52,    199,    0.0,   16.4,   0.00,   0.00, 1014.0,   84.4, -999.0
31-07-2022, 00:37:02,    200,    0.2,   16.5,   0.00,   0.00, 1014.0,   84.6, -999.0
31-07-2022, 00:37:13,    200,    0.0,   16.5,   0.00,   0.00, 1014.0,   84.6, -999.0
31-07-2022, 00:37:22,    200,    0.0,   16.4,   0.00,   0.00, 1014.0,   84.4, -999.0
31-07-2022, 00:37:32,    200,    0.0,   16.5,   0.00,   0.00, 1014.0,   84.6, -999.0
31-07-2022, 00:37:42,    199,    0.0,   16.5,   0.00,   0.00, 1014.0,   84.4, -999.0
31-07-2022, 00:37:52,    200,    0.2,   16.5,   0.00,   0.00, 1014.0,   84.7, -999.0
31-07-2022, 00:38:02,    199,    0.0,   16.5,   0.00,   0.00, 1014.0,   84.6, -999.0
31-07-2022, 00:38:12,    199,    0.0,   16.5,   0.00,   0.00, 1014.0,   84.5, -999.0
31-07-2022, 00:38:22,    195,    0.0,   16.5,   0.00,   0.00, 1014.0,   84.8, -999.0
31-07-2022, 00:38:32,    202,    0.0,   16.5,   0.00,   0.00, 1013.9,   84.6, -999.0
31-07-2022, 00:38:42,    205,    0.3,   16.5,   0.00,   0.00, 1014.0,   84.8, -999.0
31-07-2022, 00:38:52,    208,    0.5,   16.5,   0.00,   0.00, 1014.1,   84.9, -999.0
31-07-2022, 00:39:02,    216,    0.1,   16.5,   0.00,   0.00, 1014.0,   84.7, -999.0
31-07-2022, 00:39:12,    248,    1.9,   16.5,   0.00,   0.00, 1014.1,   84.9, -999.0
31-07-2022, 00:39:22,    255,    1.5,   16.5,   0.00,   0.00, 1014.1,   85.1, -999.0
31-07-2022, 00:39:31,    229,    0.6,   16.6,   0.00,   0.00, 1014.1,   85.0, -999.0
31-07-2022, 00:39:42,    215,    0.8,   16.5,   0.00,   0.00, 1014.1,   85.1, -999.0
31-07-2022, 00:39:52,    214,    0.0,   16.5,   0.00,   0.00, 1014.0,   84.9, -999.0
31-07-2022, 00:40:01,    214,    0.0,   16.5,   0.00,   0.00, 1014.0,   84.8, -999.0
31-07-2022, 00:40:12,    220,    0.3,   16.5,   0.00,   0.00, 1014.0,   85.1, -999.0
31-07-2022, 00:40:21,    225,    1.3,   16.5,   0.00,   0.00, 1014.1,   85.2, -999.0
31-07-2022, 00:40:31,    224,    0.1,   16.5,   0.00,   0.00, 1014.0,   85.1, -999.0
31-07-2022, 00:40:41,    226,    0.3,   16.5,   0.00,   0.00, 1014.1,   85.2, -999.0
31-07-2022, 00:40:51,    216,    0.8,   16.5,   0.00,   0.00, 1014.1,   85.3, -999.0
31-07-2022, 00:41:01,    216,    0.3,   16.5,   0.00,   0.00, 1014.1,   85.2, -999.0
31-07-2022, 00:41:11,    216,    0.4,   16.5,   0.00,   0.00, 1014.1,   85.3, -999.0
31-07-2022, 00:41:21,    216,    0.3,   16.5,   0.00,   0.00, 1014.1,   85.3, -999.0
31-07-2022, 00:41:31,    227,    1.1,   16.5,   0.00,   0.00, 1014.1,   85.3, -999.0
31-07-2022, 00:41:41,    230,    1.5,   16.6,   0.00,   0.00, 1014.1,   85.4, -999.0
31-07-2022, 00:41:51,    229,    0.2,   16.4,   0.00,   0.00, 1014.1,   85.3, -999.0
31-07-2022, 00:42:01,    229,    0.0,   16.4,   0.00,   0.00, 1014.0,   85.1, -999.0
31-07-2022, 00:42:11,    229,    0.0,   16.5,   0.00,   0.00, 1014.0,   85.1, -999.0
31-07-2022, 00:42:21,    229,    0.0,   16.4,   0.00,   0.00, 1014.0,   85.3, -999.0
31-07-2022, 00:42:30,    212,    0.0,   16.5,   0.00,   0.00, 1014.0,   85.2, -999.0
31-07-2022, 00:42:41,    212,    0.0,   16.4,   0.00,   0.00, 1014.0,   85.4, -999.0
31-07-2022, 00:42:51,    212,    0.0,   16.4,   0.00,   0.00, 1014.0,   85.3, -999.0
31-07-2022, 00:43:00,    212,    0.3,   16.4,   0.00,   0.00, 1014.0,   85.6, -999.0
31-07-2022, 00:43:10,    212,    0.1,   16.4,   0.00,   0.00, 1014.0,   85.6, -999.0
31-07-2022, 00:43:21,    211,    0.0,   16.4,   0.00,   0.00, 1014.1,   85.3, -999.0
31-07-2022, 00:43:30,    212,    0.0,   16.4,   0.00,   0.00, 1014.0,   85.4, -999.0
31-07-2022, 00:43:40,    239,    1.3,   16.4,   0.00,   0.00, 1014.1,   85.7, -999.0
31-07-2022, 00:43:50,    182,    1.1,   16.4,   0.00,   0.00, 1014.1,   85.8, -999.0
31-07-2022, 00:44:00,    196,    2.4,   16.4,   0.00,   0.00, 1014.1,   85.9, -999.0
31-07-2022, 00:44:10,    254,    1.2,   16.4,   0.00,   0.00, 1014.1,   85.9, -999.0
31-07-2022, 00:44:20,    189,    0.5,   16.4,   0.00,   0.00, 1014.1,   85.8, -999.0
31-07-2022, 00:44:30,    213,    0.5,   16.5,   0.00,   0.00, 1014.1,   85.9, -999.0
31-07-2022, 00:44:40,    225,    1.3,   16.5,   0.00,   0.00, 1014.2,   86.0, -999.0
31-07-2022, 00:44:50,    235,    1.1,   16.4,   0.00,   0.00, 1014.1,   85.9, -999.0
31-07-2022, 00:45:00,    237,    0.9,   16.4,   0.00,   0.00, 1014.1,   85.9, -999.0
31-07-2022, 00:45:10,    236,    0.0,   16.3,   0.00,   0.00, 1014.1,   85.9, -999.0
31-07-2022, 00:45:20,    214,    0.7,   16.4,   0.00,   0.00, 1014.1,   86.0, -999.0
31-07-2022, 00:45:30,    251,    0.7,   16.5,   0.00,   0.00, 1014.1,   86.1, -999.0
31-07-2022, 00:45:39,    253,    0.6,   16.4,   0.00,   0.00, 1014.1,   86.2, -999.0
31-07-2022, 00:45:50,    233,    0.7,   16.4,   0.00,   0.00, 1014.1,   86.3, -999.0
31-07-2022, 00:45:59,    241,    0.9,   16.4,   0.00,   0.00, 1014.1,   86.3, -999.0
31-07-2022, 00:46:09,    241,    0.7,   16.4,   0.00,   0.00, 1014.0,   86.4, -999.0
31-07-2022, 00:46:20,    234,    0.8,   16.3,   0.00,   0.00, 1014.1,   86.4, -999.0
31-07-2022, 00:46:29,    222,    0.2,   16.3,   0.00,   0.00, 1014.0,   86.2, -999.0
31-07-2022, 00:46:39,    214,    0.4,   16.3,   0.00,   0.00, 1014.1,   86.4, -999.0